Weather History for Livingston, MT

Change the Weather History Date:

Tuesday, January 1, 2013

  Actual Average Record
Temperature  
Mean Temperature 21 °F 26 °F  
Max Temperature 30 °F 36 °F 61 °F (1997)
Min Temperature 10 °F 16 °F -12 °F (1977)
Degree Days  
Heating Degree Days 44 39  
Month to date heating degree days 39  
Since 1 July heating degree days 3204  
Moisture  
Dew Point 12 °F    
Average Humidity 62    
Maximum Humidity 77    
Minimum Humidity 51    
Precipitation  
Precipitation 0.00 in 0.02 in 0.23 in (1997)
Month to date precipitation 0.02  
Year to date precipitation 0.02  
Sea Level Pressure  
Sea Level Pressure 30.31 in    
Wind  
Wind Speed 16 mph (West)    
Max Wind Speed 28 mph    
Max Gust Speed 33 mph    
Visibility 10 miles    
Events      
T = Trace of Precipitation, MM = Missing Value Source: NWS Daily Summary

Daily Weather History Graph

Daily Weather History Graph

Search for Another Location

Airport:

Trip Planner

Search our weather history database for the weather conditions in past years. The results will help you decide how hot, cold, wet, or windy it might be!

Date:

Astronomy

Jan. 01, 2013 Rise Set
Actual Time 8:02 AM MST 4:48 PM MST
Civil Twilight 7:28 AM MST 5:22 PM MST
Nautical Twilight 6:50 AM MST 6:00 PM MST
Astronomical Twilight 6:14 AM MST 6:36 PM MST
Moon 9:38 PM MST (1/1) 10:02 AM MST (1/1)
Length of Visible Light 9h 54m
Length of Day
8h 46m
Waning Gibbous, 83% of the Moon is Illuminated
Jan 1
Waning Gibbous
Jan 4
Last Quarter
Jan 11
New
Jan 18
First Quarter
Jan 26
Full

Hourly Weather History & Observations

Time (MST) Temp. Windchill Dew Point Humidity Pressure Visibility Wind Dir Wind Speed Gust Speed Precip Events Conditions
1:53 AM 24.1 °F 12.5 °F 10.9 °F 57% 30.25 in 10.0 mi WSW 12.7 mph - N/A   Overcast
2:53 AM 24.1 °F 10.1 °F 10.9 °F 57% 30.26 in 10.0 mi WSW 18.4 mph - N/A   Overcast
4:53 AM 23.0 °F 8.7 °F 12.0 °F 63% 30.25 in 10.0 mi West 18.4 mph - N/A   Scattered Clouds
5:53 AM 23.0 °F 8.7 °F 12.0 °F 63% 30.25 in 10.0 mi West 18.4 mph - N/A   Overcast
6:53 AM 25.0 °F 10.2 °F 12.9 °F 60% 30.23 in 10.0 mi WSW 21.9 mph 29.9 mph N/A   Mostly Cloudy
7:53 AM 24.1 °F 7.4 °F 12.0 °F 60% 30.22 in 10.0 mi WSW 27.6 mph 32.2 mph N/A   Clear
8:53 AM 24.1 °F 8.0 °F 12.0 °F 60% 30.26 in 10.0 mi WSW 25.3 mph 31.1 mph N/A   Mostly Cloudy
9:53 AM 26.1 °F 10.1 °F 12.9 °F 58% 30.24 in 10.0 mi WSW 27.6 mph 33.4 mph N/A   Partly Cloudy
10:53 AM 30.0 °F 16.0 °F 14.0 °F 51% 30.23 in 10.0 mi WSW 25.3 mph 32.2 mph N/A   Mostly Cloudy
11:53 AM 28.0 °F 14.9 °F 14.0 °F 56% 30.25 in 10.0 mi WSW 19.6 mph 26.5 mph N/A   Overcast
12:21 PM 28.4 °F 16.2 °F 14.0 °F 55% 30.15 in 10.0 mi West 17.3 mph - N/A   Overcast
12:53 PM 30.0 °F 19.5 °F 15.1 °F 54% 30.27 in 10.0 mi West 13.8 mph - N/A   Overcast
1:53 PM 30.0 °F 16.6 °F 15.1 °F 54% 30.28 in 10.0 mi SW 23.0 mph 33.4 mph N/A   Overcast
2:53 PM 28.0 °F 20.0 °F 14.0 °F 56% 30.32 in 10.0 mi West 8.1 mph - N/A   Overcast
3:53 PM 27.0 °F 16.1 °F 12.9 °F 56% 30.33 in 10.0 mi West 12.7 mph - N/A   Overcast
4:53 PM 26.1 °F 16.2 °F 12.9 °F 58% 30.36 in 10.0 mi WSW 10.4 mph - N/A   Overcast
5:53 PM 25.0 °F 15.5 °F 12.9 °F 60% 30.39 in 10.0 mi West 9.2 mph - N/A   Overcast
6:53 PM 21.9 °F 13.4 °F 10.9 °F 63% 30.39 in 10.0 mi West 6.9 mph - N/A   Overcast
7:53 PM 17.1 °F 7.6 °F 9.0 °F 71% 30.43 in 10.0 mi West 6.9 mph - N/A   Scattered Clouds
8:53 PM 12.9 °F -0.2 °F 7.0 °F 77% 30.43 in 10.0 mi West 10.4 mph - N/A   Clear
9:53 PM 15.1 °F 2.5 °F 9.0 °F 77% 30.42 in 10.0 mi WNW 10.4 mph - N/A   Clear
10:53 PM 12.9 °F 2.6 °F 6.1 °F 74% 30.43 in 10.0 mi NW 6.9 mph - N/A   Clear
11:53 PM 10.9 °F 0.2 °F 5.0 °F 77% 30.45 in 10.0 mi NW 6.9 mph - N/A   Clear